カタログに戻る

FENGYUN 1C DEB

運用中SSO
NORAD 37907·DEBRIS·🇨🇳 China

打ち上げ May 10, 1999 から Taiyuan Satellite Launch Center

Loading…

次のパス (今後24時間)

TLE

最新Source: Space-Track

元期: Sep 14, 2026, 13:54 UTC

1 37907U 99025ENG 26257.57923541  .00003147  00000-0  13123-2 0  9996
2 37907  99.0883  25.1213 0059518 113.8967 246.8462 14.26041398872010

AllMySatでFENGYUN 1C DEBをリアルタイム追跡

Download on the App Store